RH
17 16 16 16 16 16 17 16 16 17 17 16 16 15 14 13 14 13 14 14 14 18 17 18 19 22 28 30 31 29 32 32 31 34 40 47 40 38 40 40 41 40 38 33 32 32 31 31 28 26 23 19 18 16 14 17 20 21 20 21 23 26 29 30 32 35 38 42 45 46 45 47 50 52 54 56 55 54 51 47 46 45 43 40 36 34 36 38 40 41 39 38 37 35 31 30 33
16 16 16 16 16 17 17 17 16 17 16 16 15 14 13 13 14 13 14 15 15 19 18 18 19 22 26 30 30 27 32 35 34 38 43 44 41 41 41 42 41 41 39 33 32 32 32 33 30 27 22 17 16 15 15 17 20 22 21 21 22 25 28 31 34 38 42 45 46 46 46 48 50 52 54 56 56 55 52 49 48 47 46 44 40 37 35 35 38 40 40 38 36 35 32 31 33
17 17 17 17 17 17 17 17 16 16 16 16 15 13 13 13 13 14 14 14 17 20 19 19 21 23 24 29 31 31 36 38 36 40 43 43 42 43 42 43 41 41 39 32 32 32 33 35 32 28 22 17 14 13 15 17 20 22 23 22 23 26 30 34 38 41 44 46 46 46 47 48 49 52 53 55 57 57 53 50 49 48 47 47 46 42 38 35 36 37 38 38 34 35 35 36 33
18 18 18 19 18 17 17 16 16 16 16 15 14 13 12 13 13 14 15 16 19 20 19 20 21 24 24 29 33 33 37 38 38 41 42 42 41 43 43 43 41 41 38 32 33 32 33 35 32 29 21 16 13 13 14 17 20 23 25 25 26 29 33 37 40 44 46 46 45 45 46 48 49 50 52 55 58 57 54 50 49 49 47 48 47 44 41 37 36 34 33 34 33 33 36 37 33
19 18 18 19 18 17 18 17 16 16 15 14 14 13 13 13 13 14 16 17 18 19 19 19 22 26 25 29 32 32 37 38 40 40 41 43 42 43 43 43 42 40 38 35 34 31 33 34 32 29 22 16 13 13 14 17 20 22 25 27 29 32 35 38 41 43 44 44 43 44 45 46 48 50 51 54 57 57 55 51 48 47 46 46 44 42 40 35 33 30 28 31 34 36 36 35 32
19 19 18 18 18 17 17 17 16 15 14 14 14 13 13 14 14 14 15 15 17 17 18 20 24 26 25 31 34 34 37 37 40 40 41 44 43 42 43 44 42 40 40 36 34 33 34 34 32 31 24 18 14 13 14 17 19 22 24 26 30 33 36 38 40 41 42 41 41 43 46 47 48 49 50 52 53 54 53 49 46 44 43 42 39 37 37 33 29 27 28 32 36 38 37 34 33
18 18 17 16 17 17 16 16 15 14 14 14 14 14 14 15 14 14 15 16 18 20 20 21 23 26 30 33 36 39 40 38 38 39 40 43 43 43 44 45 42 41 40 36 37 37 34 33 32 32 27 19 15 14 15 16 19 21 24 26 29 35 38 39 41 41 40 40 40 43 46 48 49 48 47 49 48 47 47 45 42 39 36 34 33 31 33 34 30 28 30 33 36 38 39 37 34
17 17 17 16 17 17 16 16 15 15 14 14 15 14 15 15 14 14 17 17 20 24 24 24 25 31 36 33 36 42 42 39 38 40 41 42 43 45 46 46 43 43 39 36 40 39 34 33 33 33 29 22 17 14 15 16 18 20 23 26 30 35 39 40 40 40 39 39 40 43 46 47 50 48 45 46 44 42 41 40 37 33 30 29 29 29 31 34 34 34 33 33 36 39 42 41 37
15 16 16 15 16 18 17 15 15 15 15 15 15 14 15 15 14 14 15 17 18 20 22 30 32 34 40 36 38 44 43 42 42 42 42 43 44 46 47 46 44 44 41 40 42 38 34 34 34 34 31 25 19 16 15 16 18 20 22 26 30 33 37 39 39 39 38 39 41 45 47 48 49 46 43 43 42 39 38 37 35 33 30 28 28 28 30 34 37 39 37 35 37 40 44 44 41
13 13 14 14 14 16 16 15 14 14 14 14 13 13 14 14 14 14 14 15 16 16 22 35 37 36 40 38 40 44 44 45 44 43 43 44 45 45 47 45 45 45 44 44 42 37 35 34 34 35 31 27 24 20 18 17 17 19 21 24 28 31 37 40 39 39 39 40 43 47 48 47 47 45 43 41 40 39 38 37 36 35 32 29 28 28 29 32 38 42 42 39 38 39 43 46 45
11 10 11 13 13 13 12 12 12 12 12 11 10 10 11 11 12 12 12 12 13 15 21 32 37 35 37 38 42 46 45 45 44 43 43 43 43 43 44 44 45 44 45 46 43 38 35 34 36 35 32 30 27 25 22 19 18 18 20 21 26 32 37 39 40 40 40 41 45 48 47 46 46 45 44 41 39 39 39 39 38 38 35 32 29 28 28 31 36 42 44 44 42 40 42 46 48
10 9 8 10 10 9 8 9 9 9 10 8 8 8 8 8 9 8 9 10 9 11 16 28 35 32 34 38 43 47 45 44 43 42 41 40 39 41 42 44 46 46 47 47 43 39 36 37 38 36 34 33 31 29 27 24 21 18 19 20 24 31 36 37 40 41 41 44 47 48 46 46 46 44 44 42 39 39 39 39 39 40 39 37 33 30 30 31 35 40 44 46 45 43 41 44 47
10 10 9 8 8 7 7 8 8 8 8 6 7 7 7 7 7 7 8 8 7 8 11 23 31 31 34 37 42 46 44 43 42 40 39 38 38 39 41 45 47 47 47 47 45 43 42 42 41 39 38 36 34 33 32 31 25 20 18 19 21 27 34 38 41 41 43 45 47 47 46 44 43 42 43 43 41 40 40 40 41 41 41 41 39 36 33 33 34 38 42 45 46 45 44 43 45
11 12 11 10 9 9 8 7 7 7 7 7 7 6 7 7 8 8 9 9 6 6 11 20 28 32 35 37 43 44 42 42 40 40 39 37 38 39 42 46 47 47 46 46 47 47 47 47 47 44 40 38 37 36 37 35 31 24 19 19 20 24 34 41 41 42 44 45 47 47 44 42 41 41 43 43 43 42 42 42 42 42 42 43 43 42 38 36 35 37 40 43 46 46 46 44 44
12 12 12 12 11 10 9 8 8 8 7 8 7 6 8 9 9 9 9 8 7 8 13 20 25 32 35 34 38 41 41 41 40 41 41 39 42 43 45 48 48 47 44 44 45 47 47 48 48 46 45 44 41 41 41 38 35 30 23 20 21 26 36 42 42 43 44 44 46 46 44 44 43 43 43 44 44 43 42 42 42 42 44 45 46 45 43 40 38 38 39 42 45 46 47 46 45
12 12 13 14 12 11 10 9 10 8 9 9 8 8 8 12 15 14 12 10 10 12 14 20 24 30 34 32 35 41 42 42 41 42 41 41 44 46 46 48 48 46 43 42 44 48 47 46 46 45 46 46 45 46 45 40 37 34 29 24 23 30 39 42 41 42 42 42 44 44 44 46 47 45 45 46 46 43 41 41 42 43 45 46 46 46 46 45 42 40 41 44 46 47 47 47 47
10 11 13 15 13 12 12 11 10 9 10 10 10 10 9 17 24 19 16 12 11 13 14 19 24 30 35 35 37 43 44 44 44 43 43 42 43 46 46 46 47 45 43 43 46 47 45 44 45 44 43 44 46 49 49 46 40 38 34 27 25 32 40 40 38 41 42 42 42 43 44 47 49 48 48 49 47 44 40 39 42 46 47 46 46 46 47 47 45 43 43 46 49 50 49 47 47
10 10 12 13 12 12 13 12 12 10 11 11 12 11 10 20 25 19 15 12 12 15 18 23 28 33 36 38 40 44 45 45 45 45 45 44 44 45 45 45 44 43 44 45 45 44 43 44 44 44 44 45 48 49 51 49 43 41 37 31 31 36 40 38 40 44 43 41 41 44 48 48 50 51 51 52 50 47 43 39 41 46 48 47 46 46 48 50 49 48 47 48 51 54 53 52 50
9 11 12 12 11 12 13 13 12 11 12 13 12 12 11 16 22 20 16 13 15 18 20 26 30 34 36 39 40 43 45 44 45 46 46 46 46 45 44 43 42 42 44 44 44 44 44 45 44 44 45 47 49 49 50 49 46 46 42 38 39 40 40 40 42 42 41 43 45 47 49 48 50 51 47 46 45 46 45 39 40 44 46 47 48 49 51 53 53 52 53 52 53 54 59 63 60
9 12 14 12 11 12 13 12 12 11 12 14 13 13 12 13 17 18 17 15 17 18 19 25 30 32 33 37 39 41 44 43 44 46 46 47 45 45 45 45 43 43 44 45 46 46 45 45 45 45 45 48 51 51 50 50 51 50 46 43 42 41 41 42 41 40 43 45 46 48 46 43 46 45 39 39 44 48 48 42 41 43 43 45 48 51 52 53 54 54 54 55 57 58 63 68 67
9 11 13 13 11 11 12 11 11 11 13 14 14 14 13 13 13 13 16 17 16 17 21 24 27 31 33 37 39 41 44 43 44 44 44 44 43 43 47 47 45 44 45 47 49 48 47 46 45 47 48 50 52 52 50 50 51 49 47 44 42 42 42 43 42 42 44 44 46 47 40 36 41 41 38 42 46 48 49 45 45 44 43 44 47 51 53 54 56 56 54 55 60 64 68 68 66
11 10 10 11 11 11 12 10 11 12 13 15 14 14 14 14 14 13 15 19 22 22 24 25 27 31 35 37 39 41 43 42 41 40 42 42 42 44 46 47 46 46 47 49 49 48 49 49 48 50 52 52 50 50 49 49 48 47 47 45 42 42 43 43 43 44 45 45 46 42 38 40 43 43 44 46 45 43 43 41 40 39 38 39 41 46 52 54 58 59 57 55 59 64 67 66 64
10 10 9 10 11 12 12 11 12 12 12 14 15 15 15 15 16 15 14 24 32 29 27 27 27 31 35 37 39 41 40 38 39 40 41 42 43 46 46 46 47 48 49 50 50 51 54 54 53 53 53 52 49 47 49 49 47 47 46 46 45 44 44 44 45 46 43 40 39 39 42 46 46 46 49 51 49 46 44 43 42 40 39 40 39 39 43 48 55 62 63 61 61 65 70 71 69
9 10 9 9 10 12 12 11 12 12 12 14 15 16 16 16 18 19 18 26 33 30 29 28 28 31 34 36 39 42 39 38 42 42 43 45 46 47 47 48 49 49 50 52 54 55 56 56 55 55 52 51 49 48 50 50 49 49 47 47 48 46 46 45 46 45 41 38 40 45 46 46 49 53 57 58 56 54 52 52 52 52 52 53 49 44 42 42 46 55 61 65 65 66 70 72 73
8 8 10 9 9 11 11 11 11 12 12 12 15 16 17 18 22 24 24 28 30 30 31 28 29 33 34 36 40 42 41 42 44 44 46 49 49 49 49 50 50 51 52 56 57 56 56 56 56 55 52 49 49 49 50 51 52 51 50 50 49 49 49 48 48 48 47 47 48 49 49 51 57 61 63 63 61 58 57 55 56 59 61 61 58 56 55 50 48 50 56 63 67 66 66 67 69
8 8 9 9 9 10 11 11 11 11 11 12 16 16 18 24 27 27 27 30 30 32 33 30 31 36 36 39 42 42 44 47 47 45 48 50 49 49 50 51 52 53 55 57 57 57 57 56 56 55 51 47 47 48 49 51 53 54 54 53 51 51 51 50 51 52 54 54 53 54 55 59 63 64 63 61 57 55 53 52 53 57 61 61 60 60 60 57 55 52 52 56 61 62 63 64 64
11 8 8 9 9 10 11 12 11 12 11 13 16 17 20 27 31 34 32 31 32 34 35 32 32 36 38 41 43 44 48 49 48 47 50 51 50 52 52 53 54 54 56 57 57 58 56 55 54 51 46 43 44 47 48 50 54 56 56 55 54 54 54 54 55 57 59 59 58 59 60 62 62 60 57 54 51 49 48 48 49 52 55 57 57 57 55 54 53 52 51 50 50 51 54 57 57
11 9 9 9 8 10 11 11 11 12 12 13 16 17 21 27 33 41 40 36 36 38 38 34 34 37 39 43 46 48 51 51 50 49 50 52 52 55 56 56 56 56 57 57 58 57 53 50 47 45 43 43 46 47 49 53 55 56 57 58 58 58 58 59 60 61 61 60 59 59 60 61 58 55 52 48 44 42 42 44 45 47 48 49 50 51 50 49 49 49 49 47 45 43 43 47 49
10 9 10 10 9 10 9 10 11 11 12 13 15 18 21 27 35 43 43 41 42 43 42 38 37 38 39 43 48 52 53 50 50 51 53 56 58 58 58 61 61 59 59 58 59 57 49 43 43 46 46 47 49 48 49 53 55 56 58 60 61 61 61 61 61 61 60 59 59 58 58 56 53 51 47 41 37 36 38 38 39 41 42 43 43 43 43 43 43 43 45 44 43 42 39 41 43
10 9 10 11 11 10 9 10 11 12 13 12 16 20 22 28 37 42 44 44 45 47 45 39 37 38 39 44 50 54 53 50 53 56 60 63 65 64 60 62 63 61 60 60 60 54 44 43 49 52 51 50 49 47 50 54 56 58 59 61 61 61 61 61 60 58 57 57 57 57 55 52 48 44 39 34 32 32 33 33 34 35 36 36 36 36 36 36 36 36 38 40 41 42 41 41 42
11 10 10 11 11 11 11 11 11 11 12 12 16 20 24 32 38 43 46 43 42 41 41 38 37 40 44 50 55 56 54 54 58 60 62 64 66 66 61 60 61 60 59 61 58 49 45 52 56 55 53 52 50 49 55 58 58 59 59 61 61 61 60 59 57 56 56 55 55 54 50 45 39 35 33 32 32 32 32 33 34 34 34 34 35 36 35 35 36 36 37 38 40 42 42 43 42
12 12 12 10 11 13 12 11 11 11 11 13 15 20 28 35 38 43 45 42 40 36 37 38 39 44 51 55 56 55 55 57 60 61 65 68 66 64 61 59 59 59 57 58 56 52 54 58 59 57 55 54 54 55 57 58 58 59 59 60 59 59 59 57 55 54 53 53 51 48 44 39 36 34 34 34 34 34 34 35 35 34 33 33 34 35 34 34 35 35 36 36 37 40 43 43 42
12 12 12 10 10 14 13 11 11 11 12 13 16 20 27 33 35 41 43 43 42 37 38 43 47 54 59 61 60 58 59 61 64 67 69 69 68 67 64 59 59 60 58 56 57 58 61 61 62 64 60 58 59 59 58 58 60 60 59 58 57 57 58 55 52 50 49 47 44 42 40 39 38 37 36 35 34 34 34 35 35 34 33 33 33 33 33 32 32 31 33 35 35 37 40 41 42
13 12 13 13 11 12 13 12 11 12 13 14 17 19 26 31 32 37 41 41 42 39 47 57 59 62 65 68 68 65 67 68 69 72 71 68 69 68 64 59 59 61 61 61 62 65 67 66 66 66 63 62 62 61 60 60 62 60 58 57 56 56 54 51 47 44 42 40 39 39 39 39 39 37 36 35 34 34 35 35 35 35 34 33 32 33 32 32 32 31 33 35 37 38 39 39 41
15 13 13 15 12 10 13 14 11 12 13 14 17 19 25 30 28 35 39 39 46 53 64 74 69 61 63 68 67 66 71 69 68 73 73 71 71 68 63 62 62 62 65 67 67 69 72 70 68 66 65 65 64 63 62 61 61 58 56 56 56 54 50 45 42 40 39 38 39 39 39 39 38 37 37 37 36 36 36 35 35 34 34 33 32 33 33 32 32 32 33 34 35 36 38 38 38
16 13 13 14 12 10 12 14 12 12 12 14 17 18 23 28 28 33 38 44 57 61 65 76 77 68 67 69 68 70 74 70 66 69 75 76 75 72 69 68 66 64 68 69 69 71 72 71 68 66 66 64 63 64 64 61 59 57 55 55 53 50 45 42 40 39 39 39 39 39 40 40 40 40 40 39 38 37 36 35 34 33 33 33 32 32 32 32 32 32 32 32 32 34 37 38 38
17 14 12 12 12 11 12 13 13 12 13 15 17 18 22 27 29 30 36 49 58 58 59 69 79 79 74 69 70 76 77 72 68 67 75 79 79 78 74 71 68 68 72 71 70 71 70 69 68 64 64 61 60 63 64 62 60 57 54 52 49 45 43 41 40 40 39 39 38 39 39 39 40 39 38 37 37 35 34 34 33 33 33 32 31 30 30 30 30 30 31 31 33 36 39 40 39
17 15 13 12 13 13 13 12 13 12 13 16 16 18 21 25 31 34 41 52 52 53 59 62 68 74 73 68 68 75 77 73 68 65 71 76 76 75 72 72 70 70 73 70 69 71 70 69 67 66 64 61 60 63 64 62 58 53 50 48 45 43 44 42 41 40 39 38 37 37 36 36 36 36 36 35 35 35 34 34 33 32 32 31 29 29 28 28 29 30 31 34 38 39 42 44 42
17 15 13 13 13 14 15 12 13 13 12 17 17 18 24 28 39 45 44 50 51 50 56 55 56 61 63 65 67 71 72 69 64 62 69 71 69 71 72 71 70 70 71 71 72 72 70 70 67 65 63 61 63 63 61 57 52 50 48 46 44 44 44 41 38 38 38 38 36 35 34 34 34 34 34 34 34 35 34 34 33 32 31 30 28 29 29 30 31 32 34 36 40 44 46 46 43
17 16 14 14 14 15 16 13 14 13 13 18 17 17 28 36 45 50 44 47 50 50 53 52 50 52 55 60 64 63 61 62 61 61 68 68 68 74 74 72 72 70 70 72 74 72 70 71 69 65 63 63 65 62 57 53 50 49 48 46 44 43 42 38 37 38 38 38 37 35 34 34 34 34 34 34 33 33 34 32 30 28 28 28 28 30 31 33 34 35 37 38 39 43 47 48 44
17 17 16 17 16 14 16 15 15 14 14 16 16 19 32 40 44 47 44 47 48 47 50 49 45 47 53 57 59 55 52 54 56 59 65 66 67 70 71 74 76 73 70 71 72 72 73 73 70 66 64 64 63 58 54 52 50 49 47 46 43 41 40 38 38 40 41 40 39 37 35 35 35 34 33 34 33 33 32 29 26 27 29 29 29 30 32 33 35 37 38 40 41 41 43 46 47
18 18 18 19 18 15 17 17 15 16 16 14 15 22 31 37 42 43 41 43 46 45 45 45 41 42 47 51 53 52 49 49 51 57 63 64 63 64 67 75 78 74 72 72 71 71 71 72 70 66 64 63 60 55 53 52 50 47 45 44 42 41 40 40 41 42 42 42 40 38 36 34 33 32 31 30 31 30 28 26 26 28 31 32 31 31 32 31 33 35 35 36 40 40 41 46 49
19 19 18 19 18 16 17 17 15 17 18 17 16 20 27 35 41 42 38 35 40 41 38 39 41 41 42 46 50 51 49 50 53 58 64 64 63 65 69 77 80 77 75 72 69 67 67 69 68 64 62 61 57 54 54 53 50 46 45 44 42 41 42 44 44 43 42 42 41 40 37 32 30 30 28 26 27 26 25 24 25 28 31 31 31 32 32 31 31 32 32 33 34 35 39 45 47
21 19 17 18 18 17 17 17 17 18 20 22 18 16 24 34 41 42 38 35 38 38 33 34 38 39 40 43 47 49 48 53 57 59 64 66 65 66 70 76 79 78 76 71 66 64 64 66 63 60 59 58 56 55 55 52 49 47 45 44 42 43 45 46 46 44 43 43 41 41 39 34 29 28 26 25 25 23 23 24 25 27 29 29 29 30 31 31 31 30 30 31 31 31 35 38 41
23 21 18 19 18 19 18 16 18 20 22 23 19 16 18 26 39 46 40 38 42 41 34 34 37 36 38 42 45 48 50 55 59 60 66 68 66 69 73 75 77 79 78 71 64 63 63 62 60 59 58 57 56 56 54 52 50 47 45 44 44 45 46 46 45 44 43 42 41 40 38 33 30 28 26 25 25 24 23 24 25 26 26 26 26 27 28 29 30 31 31 32 32 32 33 34 36
23 22 19 20 20 19 19 18 20 23 23 21 19 19 15 18 38 53 48 42 41 39 36 33 34 33 34 40 45 48 51 55 59 62 67 69 67 72 78 75 75 80 80 71 63 62 61 60 60 60 58 57 57 55 53 51 48 46 45 45 45 46 46 45 44 43 42 42 40 39 36 31 29 30 28 26 25 25 24 23 23 23 23 25 25 24 25 25 26 29 32 33 33 33 33 34 34
21 20 18 20 21 20 21 20 22 24 23 19 18 21 18 16 32 46 44 41 38 35 34 31 31 32 31 35 44 48 50 54 58 62 68 70 68 72 76 74 73 79 80 70 62 61 61 62 62 60 57 57 56 52 49 47 45 45 46 46 46 46 46 45 44 43 41 40 37 35 35 33 30 29 28 27 25 25 25 23 24 24 24 26 26 26 27 27 26 26 29 31 33 34 35 34 33
20 19 19 23 24 24 25 24 25 25 21 17 17 24 22 17 26 37 35 34 34 32 32 29 28 30 28 31 41 47 50 53 57 62 69 72 72 73 75 76 77 80 80 71 63 62 63 64 63 61 58 57 54 50 48 46 45 45 46 47 46 46 46 44 43 41 38 36 33 31 32 32 30 29 27 26 25 24 24 23 22 23 23 24 24 25 26 28 26 26 29 30 30 32 33 32 32
22 19 20 25 27 28 29 28 26 23 21 20 20 24 25 17 22 36 39 33 29 28 28 27 27 28 27 30 39 48 52 56 58 62 69 72 75 77 76 82 84 81 79 72 65 64 65 64 62 60 59 56 53 51 50 48 47 46 47 48 47 44 43 41 38 36 33 31 31 29 29 29 29 28 27 25 24 23 23 22 22 22 22 23 23 23 24 25 25 25 29 29 27 28 29 28 30
24 22 22 25 27 31 33 29 26 24 24 26 22 23 24 19 22 33 36 30 28 26 23 25 27 26 26 31 41 50 54 58 61 62 66 69 76 79 80 83 83 78 76 72 67 68 66 64 61 58 57 56 54 54 53 50 48 49 50 48 44 40 38 36 34 33 31 30 29 27 27 27 27 27 25 24 23 24 24 24 23 24 24 24 25 24 24 25 25 24 26 27 26 27 27 26 27
25 24 25 25 25 30 31 28 26 25 27 28 24 23 22 22 31 36 32 28 29 27 24 25 28 30 32 36 45 53 53 56 60 62 64 68 74 80 82 82 80 75 74 70 67 68 65 63 61 57 55 55 54 55 56 53 52 53 50 44 39 36 35 34 33 32 30 29 28 27 26 27 28 28 27 26 25 26 27 27 26 26 26 26 26 26 25 25 25 24 25 25 25 26 26 26 27
26 26 27 26 25 27 29 30 29 26 30 32 25 23 26 31 41 40 32 30 27 24 26 27 29 36 42 43 48 53 53 55 59 61 65 68 73 79 82 83 81 75 70 65 62 62 61 60 59 57 55 55 55 57 59 57 54 52 47 41 37 35 34 33 32 31 30 29 28 28 27 27 28 28 28 27 28 28 28 29 29 28 28 28 28 27 27 26 25 25 25 25 25 26 26 27 27
28 27 27 26 24 25 29 33 32 29 33 34 23 24 33 39 43 38 30 29 26 24 29 28 28 38 44 44 47 51 53 55 57 60 68 73 76 79 81 82 80 75 71 67 62 60 58 57 55 54 54 55 56 57 57 56 53 49 46 41 37 34 34 33 32 31 30 30 30 30 30 30 29 30 29 29 29 30 30 29 29 29 29 29 28 28 27 27 26 26 27 27 27 27 27 27 28
30 29 28 27 26 28 30 31 32 30 32 32 25 28 32 35 42 41 31 29 27 26 28 27 28 37 41 41 43 47 52 56 56 62 71 75 76 79 81 81 77 75 76 74 69 65 62 58 56 53 52 53 54 54 53 54 53 50 46 41 37 35 35 34 33 33 32 32 32 32 32 31 31 31 30 30 30 30 30 30 30 30 29 29 29 28 28 27 27 28 28 28 28 28 28 28 29
29 29 28 30 30 31 31 31 32 31 31 32 30 29 30 33 42 41 32 30 29 26 26 26 28 33 38 40 42 46 52 56 60 65 70 72 75 78 79 79 75 73 77 80 77 73 70 65 61 57 55 53 53 53 52 53 51 48 44 41 37 36 36 35 34 34 33 33 33 33 32 32 32 32 31 30 30 30 31 31 32 31 30 30 29 28 28 28 27 28 28 28 28 28 28 28 29
27 28 27 27 30 30 29 29 30 30 29 30 31 33 32 35 40 38 32 30 29 26 26 26 27 30 35 39 41 45 51 56 63 68 68 71 75 75 75 76 75 73 77 80 78 75 74 71 68 65 61 57 56 54 52 51 49 47 45 42 39 37 37 37 36 35 34 34 34 33 33 33 33 33 32 31 32 32 33 33 33 32 31 30 29 28 28 27 27 27 27 27 27 27 27 28 30
24 26 25 26 28 29 28 27 27 29 29 28 33 39 37 34 36 37 32 30 29 29 28 27 27 31 35 39 41 45 50 56 64 67 67 69 72 72 74 76 76 76 79 79 75 73 73 71 70 71 69 65 61 57 53 51 50 50 49 45 41 39 39 38 37 36 35 35 35 35 34 34 34 33 32 33 33 34 34 33 34 33 32 31 30 29 28 27 27 27 27 27 27 27 28 31 34
24 25 25 26 29 29 30 29 27 28 29 29 30 33 38 40 38 34 31 30 30 30 29 29 29 32 36 40 42 46 51 57 62 65 68 70 70 70 74 78 77 75 75 75 72 72 71 70 71 72 71 68 65 60 56 55 56 57 53 49 45 42 41 40 39 38 37 36 36 36 35 35 34 33 34 34 34 35 34 34 34 33 32 31 30 29 28 27 26 26 26 26 27 27 29 32 36